Regional Weather Roundup
Issued by NWS

Home | Current Version | Previous Version | Text Only | Print | Product List | Glossary Off
Versions: 1 2 3 4 5 6 7 8 9 10 11 12 13 14 15 16 17 18 19 20 21 22 23 24 25 26 27 28 29 30 31 32 33 34 35 36 37 38 39 40 41 42 43 44 45 46 47 48 49 50

835
ASUS45 KBOI 090710
RWRID

IDAHO REGIONAL WEATHER ROUNDUP
NATIONAL WEATHER SERVICE BOISE ID
1200 AM MST TUE FEB 09 2016

NOTE: "FAIR" INDICATES FEW OR NO CLOUDS BELOW 12000 FEET
WITH NO SIGNIFICANT WEATHER AND/OR OBSTRUCTIONS TO VISIBILITY

IDZ012-014-090800-
SOUTHWEST IDAHO


CITY           SKY/WX    TMP DP  RH WIND       PRES   REMARKS
BOISE          CLEAR     33  28  81 SE8       30.64S WCI  26
CALDWELL       CLEAR     28  27  96 NE3       30.67R
MOUNTAIN HOME  CLEAR     30  26  85 SE15      30.63S WCI  19
$$

IDZ016-017-090800-
SOUTHCENTRAL IDAHO


CITY           SKY/WX    TMP DP  RH WIND       PRES   REMARKS
BURLEY         FOG       29  28  96 NE7       30.61S VSB 1/2 WCI  22
JEROME         MOCLDY    23  21  92 E16       30.61F FOG     WCI  10
TWIN FALLS     FOG       29  28  96 E9        30.61S VSB 1/4 WCI  20
$$

IDZ019>023-090800-
SOUTHEAST IDAHO


CITY           SKY/WX    TMP DP  RH WIND       PRES   REMARKS
IDAHO FALLS    FOG       18  16  92 CALM      30.64S VSB 1/4
POCATELLO      FOG       26  25  96 CALM      30.64F VSB 1/4
REXBURG        CLOUDY    14  11  87 CALM      30.63S
$$

IDZ006-010-011-018-031-032-090800-
CENTRAL IDAHO MOUNTAINS


CITY           SKY/WX    TMP DP  RH WIND       PRES   REMARKS
MCCALL         CLOUDY    18  16  92 CALM      30.57S FOG
HAILEY         CLEAR     21  19  93 NW7       30.60F WCI  13
STANLEY          N/A     17  12  80 CALM      30.63S
SALMON         CLOUDY    12  10  92 SE3       30.66S
CHALLIS        CLEAR     14  11  87 CALM      30.64S
$$

IDZ002-004-006-007-026-090800-
NORTHERN IDAHO


CITY           SKY/WX    TMP DP  RH WIND       PRES   REMARKS
LEWISTON       PTCLDY    45  35  68 E12       30.50F
LOWELL           N/A     33  31  92 CALM      30.62S
COEUR D`ALENE  CLEAR     32  27  80 NE7       30.51S WCI  26
MULLAN PASS    CLEAR     39  30  70 SW3       30.50F
$$




USA.gov is the U.S. government's official web portal to all federal, state and local government web resources and services.